Manistique, MI

5:11 AM EST on February 12, 2016 (GMT -0500)
Schoolcraft County

Weather History for KISQ - July, 2013

Change the Weather History Date:

Friday, July 19, 2013

  Actual Average Record
Temperature  
Mean Temperature 73 °F -  
Max Temperature 87 °F 75 °F 87 °F (1975)
Min Temperature 57 °F 55 °F 33 °F (2000)
Cooling Degree Days 8    
Growing Degree Days 23 (Base 50)    
Moisture  
Dew Point 65 °F    
Average Humidity 80    
Maximum Humidity 97    
Minimum Humidity 52    
Precipitation  
Precipitation 0.35 in - - ()
Sea Level Pressure  
Sea Level Pressure 29.68 in    
Wind  
Wind Speed 8 mph (NW)    
Max Wind Speed 16 mph    
Max Gust Speed 38 mph    
Visibility 10 miles    
Events Rain    
Averages and records for this station are not official NWS values.
T = Trace of Precipitation, MM = Missing Value Source: NWS Daily Summary

Daily Weather History Graph

Daily Weather History Graph

Search for Another Location

Airport or City:

Trip Planner

Search our weather history database for the weather conditions in past years. The results will help you decide how hot, cold, wet, or windy it might be!

Date:

Astronomy

Jul. 19, 2013 Rise Set
Actual Time 6:12 AM EDT 9:28 PM EDT
Civil Twilight 5:36 AM EDT 10:04 PM EDT
Nautical Twilight 4:49 AM EDT 10:51 PM EDT
Astronomical Twilight 3:49 AM EDT 11:50 PM EDT
Moon 6:29 PM EDT (7/19) 2:54 AM EDT (7/19)
Length of Visible Light 16h 28m
Length of Day
15h 15m
Waxing Gibbous, 86% of the Moon is Illuminated
Jul 19
Waxing Gibbous
Jul 22
Full
Jul 29
Last Quarter
Aug 6
New
Aug 14
First Quarter

Hourly Weather History & Observations

Time (EDT) Temp. Heat Index Dew Point Humidity Pressure Visibility Wind Dir Wind Speed Gust Speed Precip Events Conditions
12:15 AM 70.7 °F - 68.5 °F 93% 29.74 in 10.0 mi SSW 6.9 mph - 0.01 in   Clear
12:34 AM 71.1 °F - 68.9 °F 93% 29.74 in 10.0 mi SSW 8.1 mph - 0.02 in   Clear
12:55 AM 71.8 °F - 68.9 °F 91% 29.73 in 10.0 mi SSW 6.9 mph - 0.03 in   Clear
1:14 AM 72.9 °F - 69.1 °F 88% 29.73 in 10.0 mi SSW 4.6 mph - 0.01 in   Scattered Clouds
1:35 AM 73.0 °F - 69.3 °F 88% 29.73 in 10.0 mi SSW 3.5 mph - 0.02 in   Mostly Cloudy
1:54 AM 75.9 °F - 71.1 °F 85% 29.75 in 10.0 mi NW 16.1 mph 21.9 mph 0.02 in   Overcast
2:15 AM 70.2 °F - 65.8 °F 86% 29.75 in 10.0 mi NE 9.2 mph - N/A   Overcast
2:35 AM 68.9 °F - 65.7 °F 89% 29.74 in 10.0 mi ENE 6.9 mph - 0.01 in   Overcast
2:54 AM 68.4 °F - 65.3 °F 90% 29.72 in 10.0 mi East 4.6 mph - 0.02 in   Scattered Clouds
3:15 AM 67.8 °F - 65.3 °F 92% 29.70 in 10.0 mi East 5.8 mph - 0.01 in   Clear
3:35 AM 68.0 °F - 66.2 °F 94% 29.69 in 10.0 mi ESE 8.1 mph - 0.01 in   Clear
3:54 AM 68.0 °F - 65.7 °F 92% 29.68 in 10.0 mi ESE 10.4 mph - 0.02 in   Clear
4:15 AM 68.0 °F - 65.5 °F 92% 29.67 in 10.0 mi SE 9.2 mph 17.3 mph 0.01 in   Clear
4:34 AM 68.0 °F - 65.7 °F 92% 29.65 in 10.0 mi ESE 10.4 mph - 0.01 in   Clear
4:55 AM 68.2 °F - 66.4 °F 94% 29.64 in 10.0 mi SE 4.6 mph - 0.02 in   Clear
5:15 AM 68.2 °F - 67.1 °F 96% 29.63 in 10.0 mi SSE 3.5 mph - 0.01 in   Clear
5:34 AM 69.3 °F - 68.0 °F 96% 29.63 in 10.0 mi South 5.8 mph - 0.01 in   Clear
5:55 AM 69.1 °F - 67.5 °F 95% 29.62 in 10.0 mi SSW 4.6 mph - 0.02 in   Clear
6:14 AM 69.3 °F - 67.5 °F 94% 29.62 in 10.0 mi SSW 4.6 mph - N/A   Clear
6:35 AM 69.6 °F - 68.0 °F 95% 29.64 in 10.0 mi North 16.1 mph - 0.01 in   Scattered Clouds
6:55 AM 69.8 °F - 65.7 °F 87% 29.69 in 10.0 mi NNW 12.7 mph 38.0 mph 0.01 in   Overcast
7:14 AM 68.2 °F - 65.5 °F 91% 29.65 in 10.0 mi East 6.9 mph - N/A Rain Light Rain
7:35 AM 68.0 °F - 65.8 °F 93% 29.69 in 10.0 mi North 9.2 mph - 0.01 in   Mostly Cloudy
7:55 AM 67.5 °F - 65.7 °F 94% 29.63 in 10.0 mi East 5.8 mph - 0.01 in Rain Light Rain
8:14 AM 67.3 °F - 66.2 °F 96% 29.64 in 10.0 mi Calm Calm - N/A   Overcast
8:35 AM 67.3 °F - 66.4 °F 97% 29.65 in 4.0 mi South 5.8 mph - 0.01 in Rain Rain
8:55 AM 67.5 °F - 66.4 °F 96% 29.63 in 10.0 mi SSE 10.4 mph - 0.02 in   Mostly Cloudy
9:14 AM 68.0 °F - 66.9 °F 96% 29.63 in 10.0 mi SSE 9.2 mph - N/A   Scattered Clouds
9:35 AM 69.6 °F - 68.2 °F 95% 29.63 in 10.0 mi SSE 6.9 mph - N/A   Clear
9:54 AM 69.3 °F - 67.3 °F 93% 29.63 in 10.0 mi South 8.1 mph - 0.01 in   Clear
10:15 AM 72.0 °F - 68.4 °F 88% 29.62 in 10.0 mi South 9.2 mph - N/A   Clear
10:35 AM 73.0 °F - 68.9 °F 87% 29.61 in 10.0 mi SSW 6.9 mph - 0.01 in   Clear
10:54 AM 72.1 °F - 69.1 °F 90% 29.61 in 10.0 mi WSW 3.5 mph - 0.01 in   Clear
11:15 AM 78.4 °F - 72.9 °F 83% 29.61 in 10.0 mi West 6.9 mph - N/A   Clear
11:35 AM 77.5 °F - 72.1 °F 83% 29.61 in 10.0 mi West 12.7 mph 18.4 mph 0.01 in   Scattered Clouds
11:55 AM 81.9 °F 87.7 °F 74.1 °F 77% 29.61 in 10.0 mi West 10.4 mph 18.4 mph 0.01 in   Clear
12:15 PM 84.0 °F 91.5 °F 74.5 °F 73% 29.61 in 10.0 mi West 8.1 mph 21.9 mph N/A   Clear
12:34 PM 85.3 °F 91.8 °F 72.9 °F 66% 29.61 in 10.0 mi WNW 12.7 mph 17.3 mph 0.01 in   Mostly Cloudy
12:55 PM 85.3 °F 90.4 °F 70.7 °F 62% 29.61 in 10.0 mi West 12.7 mph 20.7 mph 0.02 in   Scattered Clouds
1:14 PM 87.4 °F 92.3 °F 70.0 °F 56% 29.59 in 10.0 mi West 6.9 mph 16.1 mph N/A   Clear
1:35 PM 82.0 °F 85.3 °F 68.7 °F 64% 29.62 in 10.0 mi West 11.5 mph 18.4 mph 0.01 in   Scattered Clouds
1:55 PM 79.9 °F - 70.3 °F 73% 29.63 in 10.0 mi NW 10.4 mph - 0.01 in Rain Light Rain
2:14 PM 81.9 °F 86.4 °F 71.8 °F 71% 29.64 in 10.0 mi NW 12.7 mph 19.6 mph N/A   Scattered Clouds
2:35 PM 79.9 °F - 70.2 °F 72% 29.64 in 10.0 mi NNW 8.1 mph 17.3 mph 0.01 in   Mostly Cloudy
2:55 PM 78.3 °F - 72.7 °F 83% 29.66 in 10.0 mi North 8.1 mph - 0.01 in   Mostly Cloudy
3:14 PM 73.8 °F - 69.1 °F 85% 29.67 in 7.0 mi North 12.7 mph 25.3 mph N/A Rain Heavy Rain
3:35 PM 74.5 °F - 68.2 °F 81% 29.67 in 10.0 mi North 16.1 mph 25.3 mph 0.01 in   Scattered Clouds
3:54 PM 75.7 °F - 66.6 °F 73% 29.68 in 10.0 mi NNW 16.1 mph 23.0 mph 0.01 in   Clear
4:15 PM 77.0 °F - 64.9 °F 66% 29.69 in 10.0 mi NNW 12.7 mph 20.7 mph 0.01 in   Clear
4:35 PM 77.7 °F - 63.5 °F 61% 29.69 in 10.0 mi NW 15.0 mph 24.2 mph 0.01 in   Clear
4:54 PM 77.5 °F - 62.2 °F 59% 29.69 in 10.0 mi NNW 12.7 mph 21.9 mph 0.01 in   Clear
5:15 PM 78.1 °F - 61.9 °F 57% 29.70 in 10.0 mi NW 11.5 mph 19.6 mph 0.01 in   Clear
5:35 PM 77.5 °F - 61.0 °F 57% 29.70 in 10.0 mi North 13.8 mph 20.7 mph 0.01 in   Clear
5:54 PM 77.5 °F - 60.8 °F 56% 29.70 in 10.0 mi North 13.8 mph 20.7 mph 0.02 in   Clear
6:15 PM 77.4 °F - 61.0 °F 57% 29.70 in 10.0 mi North 9.2 mph - N/A   Clear
6:34 PM 77.2 °F - 61.3 °F 58% 29.70 in 10.0 mi North 11.5 mph 20.7 mph 0.01 in   Clear
6:55 PM 77.2 °F - 61.9 °F 59% 29.70 in 10.0 mi NNW 13.8 mph 17.3 mph 0.02 in   Clear
7:15 PM 76.5 °F - 59.7 °F 56% 29.71 in 10.0 mi NNW 11.5 mph - N/A   Clear
7:34 PM 75.4 °F - 56.8 °F 52% 29.71 in 10.0 mi North 12.7 mph - 0.01 in   Clear
7:55 PM 74.5 °F - 57.2 °F 55% 29.72 in 10.0 mi NNW 10.4 mph 17.3 mph 0.01 in   Clear
8:15 PM 73.8 °F - 58.1 °F 58% 29.73 in 10.0 mi North 6.9 mph - 0.01 in   Clear
8:34 PM 72.5 °F - 58.1 °F 60% 29.73 in 10.0 mi North 5.8 mph - 0.01 in   Clear
8:55 PM 70.5 °F - 58.5 °F 66% 29.73 in 10.0 mi NNW 5.8 mph - 0.02 in   Clear
9:15 PM 68.7 °F - 58.3 °F 69% 29.73 in 10.0 mi NNW 3.5 mph - N/A   Clear
9:34 PM 67.5 °F - 58.6 °F 73% 29.74 in 10.0 mi Calm Calm - 0.01 in   Clear
9:55 PM 63.7 °F - 57.9 °F 81% 29.75 in 10.0 mi NW 4.6 mph - 0.01 in   Clear
10:14 PM 62.4 °F - 59.0 °F 89% 29.75 in 10.0 mi Calm Calm - N/A   Clear
10:35 PM 61.0 °F - 58.6 °F 92% 29.75 in 10.0 mi Calm Calm - N/A   Clear
10:54 PM 59.7 °F - 57.2 °F 91% 29.75 in 10.0 mi Calm Calm - 0.01 in   Clear
11:15 PM 59.4 °F - 57.2 °F 93% 29.75 in 10.0 mi West 3.5 mph - N/A   Clear
11:35 PM 59.2 °F - 57.2 °F 93% 29.75 in 10.0 mi Calm Calm - N/A   Clear
11:54 PM 57.9 °F - 56.8 °F 96% 29.75 in 10.0 mi Calm Calm - N/A   Clear